Lid_Strength_Index
5 5 5 5 5 5 4 4 4 4 3 3 3 3 3 2 2 4 7 4 3 0 1 5 6 6 5 6 5 5 11 13 12 11 10 8 8 8 7 8 7 6 6 5 5
6 6 5 5 5 5 4 4 4 4 4 4 3 3 3 2 5 6 4 2 1 1 5 7 8 7 8 7 7 8 11 11 9 9 9 8 8 8 9 8 9 8 5 4 6
6 6 5 5 5 5 5 4 4 4 4 4 3 3 3 3 8 7 3 2 2 1 4 5 6 6 8 7 8 8 11 8 8 8 8 8 7 7 9 10 8 8 6 6 7
6 6 6 6 5 5 5 5 4 4 4 4 3 3 3 6 14 7 3 2 2 2 4 6 6 7 10 10 7 10 7 8 7 7 8 8 7 9 8 7 6 5 5 6 7
6 6 6 6 6 5 5 5 4 4 4 4 3 3 6 11 9 5 2 3 5 4 5 6 6 7 9 9 8 10 9 7 6 7 8 7 8 8 9 8 5 5 5 5 7
6 6 6 6 5 5 5 5 5 4 4 3 3 2 8 12 6 4 4 4 5 4 5 5 6 5 8 9 9 8 8 8 7 8 7 8 8 8 8 6 6 6 6 5 5
6 6 6 6 6 5 5 5 4 4 3 3 3 4 8 10 5 5 4 5 4 5 5 4 3 6 6 9 6 8 11 9 8 8 9 7 10 10 7 6 7 7 6 5 5
6 6 6 6 6 6 5 5 4 4 3 3 3 6 10 5 5 5 4 5 3 3 3 3 3 5 7 6 8 11 11 14 9 9 8 8 13 9 8 8 8 7 7 6 5
6 6 6 6 6 6 5 5 4 4 4 4 7 9 11 5 8 6 5 6 4 2 3 2 3 7 7 11 13 12 15 14 12 8 9 10 12 10 8 7 9 8 7 6 6
6 6 6 6 6 6 5 6 5 7 7 5 6 12 9 10 8 6 5 5 6 4 5 6 8 11 10 12 18 16 15 14 14 11 10 12 12 9 9 10 8 8 7 7 6
7 6 6 6 6 6 8 11 14 14 11 13 12 12 10 8 6 7 5 6 5 7 11 8 12 14 12 11 11 12 14 14 12 10 11 12 11 10 10 11 9 8 8 7 6
7 7 6 6 6 6 10 13 13 11 15 11 10 10 9 8 10 8 5 8 9 12 10 12 13 10 9 10 11 12 14 14 12 10 11 12 12 10 11 12 13 13 10 8 7
7 7 7 6 6 10 12 12 9 8 14 13 11 10 10 8 10 9 7 8 11 12 12 13 11 9 10 11 13 14 14 14 14 12 11 12 14 13 12 12 13 12 12 11 10
7 7 6 6 11 12 13 10 9 9 20 17 14 11 10 9 11 7 7 8 10 12 11 13 9 10 11 12 12 15 11 11 13 14 17 12 19 16 14 13 14 14 13 12 12
7 7 7 7 14 13 11 10 10 13 27 16 14 9 10 12 11 10 7 9 12 11 12 14 12 12 12 12 10 13 11 12 12 15 15 15 17 15 14 15 14 14 14 13 12
7 7 8 10 12 11 10 10 12 22 27 17 14 15 14 13 11 10 10 8 9 11 12 12 10 12 13 10 10 10 11 12 13 15 19 16 16 17 15 14 14 13 13 13 11
7 7 9 10 13 10 10 14 23 26 19 20 18 15 15 15 13 12 12 13 13 18 15 13 13 11 11 12 10 11 14 19 21 23 21 15 17 16 14 13 14 14 13 12 12
7 7 9 9 9 11 13 20 28 25 22 16 16 16 17 15 15 13 13 15 13 12 15 16 18 13 11 13 14 13 14 19 23 22 20 15 18 16 13 12 12 12 13 12 12
7 11 11 10 9 11 17 26 26 22 17 17 17 19 22 15 16 16 15 15 12 11 15 15 16 11 11 11 12 14 16 13 17 20 19 18 17 13 12 13 13 13 12 12 12
11 12 12 9 10 13 20 22 22 17 16 16 19 18 21 20 17 17 18 15 14 11 9 12 16 12 11 11 11 13 13 17 17 23 23 19 19 18 15 14 13 13 13 13 12
12 17 12 9 12 17 23 23 18 16 15 17 19 18 18 18 19 17 17 14 14 11 9 11 12 14 12 13 14 13 15 15 15 17 20 21 19 15 14 13 14 13 12 13 12
14 22 12 11 20 23 23 20 17 16 15 15 16 17 17 17 17 18 17 15 10 10 13 11 13 18 16 11 11 12 14 14 18 19 17 18 18 12 13 12 12 13 12 12 11
17 17 11 12 24 23 23 21 18 17 16 16 16 16 15 17 19 16 16 13 12 11 12 11 15 23 18 14 12 13 12 13 14 14 17 19 18 12 11 12 12 12 12 11 12
17 19 16 14 18 20 23 23 20 16 16 15 16 15 17 17 16 17 16 14 13 12 9 10 14 18 20 17 14 15 13 12 13 18 16 16 17 14 12 13 12 12 11 11 11
17 19 17 19 17 20 19 19 20 20 17 16 17 16 17 19 18 17 16 15 14 11 13 14 21 18 16 15 14 14 13 13 15 14 16 15 15 12 11 13 13 12 11 11 11
17 17 16 20 16 18 18 20 19 18 18 18 18 16 16 18 17 18 16 16 16 15 15 15 21 19 21 16 16 17 15 15 14 13 14 14 14 10 11 12 13 11 11 11 11
13 13 15 16 18 20 20 18 18 17 17 16 16 16 17 16 15 15 14 15 15 16 15 17 21 24 25 20 21 23 18 15 15 14 13 15 12 12 13 12 12 11 11 11 11